0% found this document useful (0 votes)
4 views16 pages

Data 3

The document contains weather data for various Australian cities including Sydney, Melbourne, Perth, Brisbane, and Darwin, recorded on January 1, 2026. It includes information such as temperature, wind speed, humidity, and pressure at different hourly intervals. The data highlights variations in weather conditions across these locations throughout the day.

Uploaded by

jonty
Copyright
© All Rights Reserved
We take content rights seriously. If you suspect this is your content, claim it here.
Available Formats
Download as DOCX, PDF, TXT or read online on Scribd
0% found this document useful (0 votes)
4 views16 pages

Data 3

The document contains weather data for various Australian cities including Sydney, Melbourne, Perth, Brisbane, and Darwin, recorded on January 1, 2026. It includes information such as temperature, wind speed, humidity, and pressure at different hourly intervals. The data highlights variations in weather conditions across these locations throughout the day.

Uploaded by

jonty
Copyright
© All Rights Reserved
We take content rights seriously. If you suspect this is your content, claim it here.
Available Formats
Download as DOCX, PDF, TXT or read online on Scribd

timestamp,station,temperature_C,wind_speed_kmh,humidity_pct,pressure

_hPa

2026-01-01 00:00,Sydney,22.5,15,68,1012

2026-01-01 00:00,Melbourne,18.2,20,72,1015

2026-01-01 00:00,Perth,25.7,12,55,1009
timestamp,station,temperature_C,wind_speed_kmh,humidity_pct,pressure
_hPa

2026-01-01 00:00,Sydney,22.5,15,68,1012

2026-01-01 00:00,Melbourne,18.2,20,72,1015

2026-01-01 00:00,Perth,25.7,12,55,1009

2026-01-01 00:00,Brisbane,24.1,14,70,1011

2026-01-01 00:00,Darwin,28.9,10,80,1008

2026-01-01 01:00,Sydney,21.9,16,69,1013

2026-01-01 01:00,Melbourne,17.8,19,73,1016

2026-01-01 01:00,Perth,25.3,11,56,1010

2026-01-01 01:00,Brisbane,23.7,13,71,1012

2026-01-01 01:00,Darwin,28.5,9,81,1009

2026-01-01 02:00,Sydney,21.4,14,70,1014

2026-01-01 02:00,Melbourne,17.3,18,74,1017

2026-01-01 02:00,Perth,24.9,13,57,1011

2026-01-01 02:00,Brisbane,23.3,12,72,1013

2026-01-01 02:00,Darwin,28.1,11,82,1010

2026-01-01 03:00,Sydney,20.8,13,71,1015

2026-01-01 03:00,Melbourne,16.9,17,75,1018

2026-01-01 03:00,Perth,24.5,12,58,1012

2026-01-01 03:00,Brisbane,22.9,11,73,1014

2026-01-01 03:00,Darwin,27.7,10,83,1011

...
timestamp,station,temperature_C,wind_speed_kmh,humidity_pct,pressure
_hPa

2026-01-01 00:00,Sydney,22.5,15,68,1012

2026-01-01 00:00,Melbourne,18.2,20,72,1015

2026-01-01 00:00,Perth,25.7,12,55,1009

2026-01-01 00:00,Brisbane,24.1,14,70,1011
2026-01-01 00:00,Darwin,28.9,10,80,1008

2026-01-01 01:00,Sydney,21.9,16,69,1013

2026-01-01 01:00,Melbourne,17.8,19,73,1016

2026-01-01 01:00,Perth,25.3,11,56,1010

2026-01-01 01:00,Brisbane,23.7,13,71,1012

2026-01-01 01:00,Darwin,28.5,9,81,1009

2026-01-01 02:00,Sydney,21.4,14,70,1014
timestamp,station,temperature_C,wind_speed_kmh,humidity_pct,pressure
_hPa

2026-01-01 00:00,Sydney,22.5,15,68,1012

2026-01-01 00:00,Melbourne,18.2,20,72,1015

2026-01-01 00:00,Perth,25.7,12,55,1009

2026-01-01 00:00,Brisbane,24.1,14,70,1011

2026-01-01 00:00,Darwin,28.9,10,80,1008

2026-01-01 01:00,Sydney,21.9,16,69,1013

2026-01-01 01:00,Melbourne,17.8,19,73,1016

2026-01-01 01:00,Perth,25.3,11,56,1010

2026-01-01 01:00,Brisbane,23.7,13,71,1012

2026-01-01 01:00,Darwin,28.5,9,81,1009

2026-01-01 02:00,Sydney,21.4,14,70,1014

2026-01-01 02:00,Melbourne,17.3,18,74,1017

2026-01-01 02:00,Perth,24.9,13,57,1011

2026-01-01 02:00,Brisbane,23.3,12,72,1013

2026-01-01 02:00,Darwin,28.1,11,82,1010

2026-01-01 03:00,Sydney,20.8,13,71,1015
timestamp,station,temperature_C,wind_speed_kmh,humidity_pct,pressure
_hPa

2026-01-01 00:00,Sydney,22.5,15,68,1012

2026-01-01 00:00,Melbourne,18.2,20,72,1015

2026-01-01 00:00,Perth,25.7,12,55,1009

2026-01-01 00:00,Brisbane,24.1,14,70,1011

2026-01-01 00:00,Darwin,28.9,10,80,1008

2026-01-01 01:00,Sydney,21.9,16,69,1013

2026-01-01 01:00,Melbourne,17.8,19,73,1016

2026-01-01 01:00,Perth,25.3,11,56,1010

2026-01-01 01:00,Brisbane,23.7,13,71,1012

2026-01-01 01:00,Darwin,28.5,9,81,1009

2026-01-01 02:00,Sydney,21.4,14,70,1014

2026-01-01 02:00,Melbourne,17.3,18,74,1017

2026-01-01 02:00,Perth,24.9,13,57,1011

2026-01-01 02:00,Brisbane,23.3,12,72,1013

2026-01-01 02:00,Darwin,28.1,11,82,1010

2026-01-01 03:00,Sydney,20.8,13,71,1015

2026-01-01 03:00,Melbourne,16.9,17,75,1018

2026-01-01 03:00,Perth,24.5,12,58,1012
timestamp,station,temperature_C,wind_speed_kmh,humidity_pct,pressure
_hPa

2026-01-01 00:00,Sydney,22.5,15,68,1012

2026-01-01 00:00,Melbourne,18.2,20,72,1015

2026-01-01 00:00,Perth,25.7,12,55,1009

2026-01-01 00:00,Brisbane,24.1,14,70,1011

2026-01-01 00:00,Darwin,28.9,10,80,1008

2026-01-01 01:00,Sydney,21.9,16,69,1013

2026-01-01 01:00,Melbourne,17.8,19,73,1016

2026-01-01 01:00,Perth,25.3,11,56,1010

2026-01-01 01:00,Brisbane,23.7,13,71,1012

2026-01-01 01:00,Darwin,28.5,9,81,1009

2026-01-01 02:00,Sydney,21.4,14,70,1014

2026-01-01 02:00,Melbourne,17.3,18,74,1017

2026-01-01 02:00,Perth,24.9,13,57,1011

2026-01-01 02:00,Brisbane,23.3,12,72,1013

2026-01-01 02:00,Darwin,28.1,11,82,1010

2026-01-01 03:00,Sydney,20.8,13,71,1015
2026-01-01 03:00,Melbourne,16.9,17,75,1018

2026-01-01 03:00,Perth,24.5,12,58,1012

2026-01-01 03:00,Brisbane,22.9,11,73,1014

2026-01-01 03:00,Darwin,27.7,10,83,1011

...

2026-01-01 03:00,Brisbane,22.9,11,73,1014

2026-01-01 03:00,Darwin,27.7,10,83,101
timestamp,station,temperature_C,wind_speed_kmh,humidity_pct,pressure
_hPa

2026-01-01 00:00,Sydney,22.5,15,68,1012

2026-01-01 00:00,Melbourne,18.2,20,72,1015

2026-01-01 00:00,Perth,25.7,12,55,1009

2026-01-01 00:00,Brisbane,24.1,14,70,1011

2026-01-01 00:00,Darwin,28.9,10,80,1008

2026-01-01 01:00,Sydney,21.9,16,69,1013

2026-01-01 01:00,Melbourne,17.8,19,73,1016

2026-01-01 01:00,Perth,25.3,11,56,1010

2026-01-01 01:00,Brisbane,23.7,13,71,1012

2026-01-01 01:00,Darwin,28.5,9,81,1009

2026-01-01 02:00,Sydney,21.4,14,70,1014

2026-01-01 02:00,Melbourne,17.3,18,74,1017

2026-01-01 02:00,Perth,24.9,13,57,1011

2026-01-01 02:00,Brisbane,23.3,12,72,1013

2026-01-01 02:00,Darwin,28.1,11,82,1010

2026-01-01 03:00,Sydney,20.8,13,71,1015

2026-01-01 03:00,Melbourne,16.9,17,75,1018

2026-01-01 03:00,Perth,24.5,12,58,1012

2026-01-01 03:00,Brisbane,22.9,11,73,1014

2026-01-01 03:00,Darwin,27.7,10,83,1011

...1

...

2026-01-01 03:00,Melbourne,16.9,17,75,1018

2026-01-01 03:00,Perth,24.5,12,58,1012
timestamp,station,temperature_C,wind_speed_kmh,humidity_pct,pressure
_hPa

2026-01-01 00:00,Sydney,22.5,15,68,1012

2026-01-01 00:00,Melbourne,18.2,20,72,1015

2026-01-01 00:00,Perth,25.7,12,55,1009

2026-01-01 00:00,Brisbane,24.1,14,70,1011

2026-01-01 00:00,Darwin,28.9,10,80,1008

2026-01-01 01:00,Sydney,21.9,16,69,1013

2026-01-01 01:00,Melbourne,17.8,19,73,1016

2026-01-01 01:00,Perth,25.3,11,56,1010

2026-01-01 01:00,Brisbane,23.7,13,71,1012

2026-01-01 01:00,Darwin,28.5,9,81,1009

2026-01-01 02:00,Sydney,21.4,14,70,1014

2026-01-01 02:00,Melbourne,17.3,18,74,1017

2026-01-01 02:00,Perth,24.9,13,57,1011

2026-01-01 02:00,Brisbane,23.3,12,72,1013

2026-01-01 02:00,Darwin,28.1,11,82,1010

2026-01-01 03:00,Sydney,20.8,13,71,1015

2026-01-01 03:00,Melbourne,16.9,17,75,1018

2026-01-01 03:00,Perth,24.5,12,58,1012

2026-01-01 03:00,Brisbane,22.9,11,73,1014

2026-01-01 03:00,Darwin,27.7,10,83,1011

...

2026-01-01 03:00,Brisbane,22.9,11,73,1014
timestamp,station,temperature_C,wind_speed_kmh,humidity_pct,pressure
_hPa

2026-01-01 00:00,Sydney,22.5,15,68,1012

2026-01-01 00:00,Melbourne,18.2,20,72,1015

2026-01-01 00:00,Perth,25.7,12,55,1009

2026-01-01 00:00,Brisbane,24.1,14,70,1011

2026-01-01 00:00,Darwin,28.9,10,80,1008

2026-01-01 01:00,Sydney,21.9,16,69,1013

2026-01-01 01:00,Melbourne,17.8,19,73,1016

2026-01-01 01:00,Perth,25.3,11,56,1010

2026-01-01 01:00,Brisbane,23.7,13,71,1012

2026-01-01 01:00,Darwin,28.5,9,81,1009

2026-01-01 02:00,Sydney,21.4,14,70,1014

2026-01-01 02:00,Melbourne,17.3,18,74,1017

2026-01-01 02:00,Perth,24.9,13,57,1011

2026-01-01 02:00,Brisbane,23.3,12,72,1013

2026-01-01 02:00,Darwin,28.1,11,82,1010

2026-01-01 03:00,Sydney,20.8,13,71,1015

2026-01-01 03:00,Melbourne,16.9,17,75,1018

2026-01-01 03:00,Perth,24.5,12,58,1012

2026-01-01 03:00,Brisbane,22.9,11,73,1014

2026-01-01 03:00,Darwin,27.7,10,83,1011
timestamp,station,temperature_C,wind_speed_kmh,humidity_pct,pressure
_hPa

2026-01-01 00:00,Sydney,22.5,15,68,1012

2026-01-01 00:00,Melbourne,18.2,20,72,1015

2026-01-01 00:00,Perth,25.7,12,55,1009

2026-01-01 00:00,Brisbane,24.1,14,70,1011

2026-01-01 00:00,Darwin,28.9,10,80,1008

2026-01-01 01:00,Sydney,21.9,16,69,1013

2026-01-01 01:00,Melbourne,17.8,19,73,1016

2026-01-01 01:00,Perth,25.3,11,56,1010

2026-01-01 01:00,Brisbane,23.7,13,71,1012

2026-01-01 01:00,Darwin,28.5,9,81,1009

2026-01-01 02:00,Sydney,21.4,14,70,1014

2026-01-01 02:00,Melbourne,17.3,18,74,1017
2026-01-01 02:00,Perth,24.9,13,57,1011

2026-01-01 02:00,Brisbane,23.3,12,72,1013

2026-01-01 02:00,Darwin,28.1,11,82,1010

2026-01-01 03:00,Sydney,20.8,13,71,1015

2026-01-01 03:00,Melbourne,16.9,17,75,1018

2026-01-01 03:00,Perth,24.5,12,58,1012

2026-01-01 03:00,Brisbane,22.9,11,73,1014

2026-01-01 03:00,Darwin,27.7,10,83,1011

...
timestamp,station,temperature_C,wind_speed_kmh,humidity_pct,pressure
_hPa

2026-01-01 00:00,Sydney,22.5,15,68,1012

2026-01-01 00:00,Melbourne,18.2,20,72,1015

2026-01-01 00:00,Perth,25.7,12,55,1009

2026-01-01 00:00,Brisbane,24.1,14,70,1011

2026-01-01 00:00,Darwin,28.9,10,80,1008

2026-01-01 01:00,Sydney,21.9,16,69,1013

2026-01-01 01:00,Melbourne,17.8,19,73,1016

2026-01-01 01:00,Perth,25.3,11,56,1010

2026-01-01 01:00,Brisbane,23.7,13,71,1012

2026-01-01 01:00,Darwin,28.5,9,81,1009

2026-01-01 02:00,Sydney,21.4,14,70,1014

2026-01-01 02:00,Melbourne,17.3,18,74,1017

2026-01-01 02:00,Perth,24.9,13,57,1011
timestamp,station,temperature_C,wind_speed_kmh,humidity_pct,pressure
_hPa

2026-01-01 00:00,Sydney,22.5,15,68,1012

2026-01-01 00:00,Melbourne,18.2,20,72,1015

2026-01-01 00:00,Perth,25.7,12,55,1009

2026-01-01 00:00,Brisbane,24.1,14,70,1011

2026-01-01 00:00,Darwin,28.9,10,80,1008

2026-01-01 01:00,Sydney,21.9,16,69,1013

2026-01-01 01:00,Melbourne,17.8,19,73,1016

2026-01-01 01:00,Perth,25.3,11,56,1010

2026-01-01 01:00,Brisbane,23.7,13,71,1012

2026-01-01 01:00,Darwin,28.5,9,81,1009

2026-01-01 02:00,Sydney,21.4,14,70,1014

2026-01-01 02:00,Melbourne,17.3,18,74,1017

2026-01-01 02:00,Perth,24.9,13,57,1011

2026-01-01 02:00,Brisbane,23.3,12,72,1013

2026-01-01 02:00,Darwin,28.1,11,82,1010

2026-01-01 03:00,Sydney,20.8,13,71,1015

2026-01-01 03:00,Melbourne,16.9,17,75,1018

2026-01-01 03:00,Perth,24.5,12,58,1012

2026-01-01 03:00,Brisbane,22.9,11,73,1014

2026-01-01 03:00,Darwin,27.7,10,83,1011
...

2026-01-01 02:00,Brisbane,23.3,12,72,1013

2026-01-01 02:00,Darwin,28.1,11,82,1010

2026-01-01 03:00,Sydney,20.8,13,71,1015

2026-01-01 03:00,Melbourne,16.9,17,75,1018

2026-01-01 03:00,Perth,24.5,12,58,1012

2026-01-01 03:00,Brisbane,22.9,11,73,1014

2026-01-01 03:00,Darwin,27.7,10,83,1011

...

...

2026-01-01 03:00,Darwin,27.7,10,83,1011

...

2026-01-01 02:00,Melbourne,17.3,18,74,1017

2026-01-01 02:00,Perth,24.9,13,57,1011

2026-01-01 02:00,Brisbane,23.3,12,72,1013

2026-01-01 02:00,Darwin,28.1,11,82,1010

2026-01-01 03:00,Sydney,20.8,13,71,1015

2026-01-01 03:00,Melbourne,16.9,17,75,1018

2026-01-01 03:00,Perth,24.5,12,58,1012

2026-01-01 03:00,Brisbane,22.9,11,73,1014

2026-01-01 03:00,Darwin,27.7,10,83,1011

...

2026-01-01 00:00,Brisbane,24.1,14,70,1011

2026-01-01 00:00,Darwin,28.9,10,80,1008

2026-01-01 01:00,Sydney,21.9,16,69,1013

2026-01-01 01:00,Melbourne,17.8,19,73,1016

2026-01-01 01:00,Perth,25.3,11,56,1010

2026-01-01 01:00,Brisbane,23.7,13,71,1012

2026-01-01 01:00,Darwin,28.5,9,81,1009
2026-01-01 02:00,Sydney,21.4,14,70,1014

2026-01-01 02:00,Melbourne,17.3,18,74,1017

2026-01-01 02:00,Perth,24.9,13,57,1011

2026-01-01 02:00,Brisbane,23.3,12,72,1013

2026-01-01 02:00,Darwin,28.1,11,82,1010

2026-01-01 03:00,Sydney,20.8,13,71,1015

2026-01-01 03:00,Melbourne,16.9,17,75,1018

2026-01-01 03:00,Perth,24.5,12,58,1012

2026-01-01 03:00,Brisbane,22.9,11,73,1014

2026-01-01 03:00,Darwin,27.7,10,83,1011

...

You might also like